Location: Newark
(50.4375°N, 16.6489°E)
Time: 06:13:54
(UTC+00:00)

Envisat - Visible Passes

Search period start: 17 September 2019 00:00
Search period end: 27 September 2019 00:00
Orbit: 764 x 766 km, 98.1° (Epoch: 16 September)

Date Brightness Start Highest point End Pass type
(mag) Time Alt. Az. Time Alt. Az. Time Alt. Az.
17 Sep 5.4 17:58:03 10° SSW 18:02:19 27° W 18:06:38 10° NW visible
19 Sep 5.9 18:24:54 10° SW 18:28:08 17° W 18:31:23 10° NW visible
20 Sep 5.0 17:46:25 10° SSW 17:50:58 33° W 17:55:33 10° NNW visible
22 Sep 5.8 18:12:59 10° SW 18:16:45 21° W 18:20:31 10° NW visible
23 Sep 4.6 17:34:53 10° SSW 17:39:38 40° W 17:44:26 10° NNW visible
24 Sep 6.1 18:40:30 10° WSW 18:42:37 12° W 18:44:44 10° WNW visible
25 Sep 5.4 18:01:13 10° SSW 18:05:21 25° W 18:09:32 10° NW visible
26 Sep 4.1 17:23:24 10° S 17:28:19 49° W 17:33:16 10° NNW visible
